timestamp,surface_pressure_avg,surface_temp_avg,battery_voltage,lat,long
2019-09-15 00:00:00+00:00,340.8479,14.0,12.97,47.84626,-54.09684
2019-09-15 00:10:00+00:00,340.4197,14.0,12.89,47.84626,-54.09684
2019-09-15 00:20:00+00:00,342.3579,14.0,12.97,47.84626,-54.09684
2019-09-15 00:30:00+00:00,344.1928,14.0,12.97,47.84626,-54.09684
2019-09-15 00:40:00+00:00,343.4514,14.0,12.97,47.84626,-54.09684
2019-09-15 00:50:00+00:00,338.3364,14.0,12.97,47.84626,-54.09684
2019-09-15 01:00:00+00:00,334.293,13.94,12.89,47.84626,-54.09684
2019-09-15 01:10:00+00:00,330.5496,13.97,12.81,47.84626,-54.09684
2019-09-15 01:20:00+00:00,325.2914,13.9,12.89,47.84626,-54.09684
2019-09-15 01:30:00+00:00,318.3914,13.9,12.97,47.84626,-54.09684
2019-09-15 01:40:00+00:00,314.1029,13.9,12.97,47.84626,-54.09684
2019-09-15 01:50:00+00:00,312.033,13.9,12.97,47.84626,-54.09684
2019-09-15 02:00:00+00:00,307.2747,13.9,12.89,47.84626,-54.09684
2019-09-15 02:10:00+00:00,301.7563,13.9,12.81,47.84626,-54.09684
2019-09-15 02:20:00+00:00,297.7746,13.9,12.89,47.84626,-54.09684
2019-09-15 02:30:00+00:00,294.058,13.9,12.89,47.84626,-54.09684
2019-09-15 02:40:00+00:00,285.913,13.9,12.97,47.84626,-54.09684
2019-09-15 02:50:00+00:00,278.1647,13.9,12.97,47.84626,-54.09684
2019-09-15 03:00:00+00:00,270.7614,13.9,12.89,47.84626,-54.09684
2019-09-15 03:10:00+00:00,261.4865,13.91,12.81,47.84626,-54.09684
2019-09-15 03:20:00+00:00,250.7531,13.94,12.89,47.84626,-54.09684
2019-09-15 03:30:00+00:00,240.4114,13.99,12.89,47.84626,-54.09684
2019-09-15 03:40:00+00:00,232.8014,14.0,12.97,47.84626,-54.09684
2019-09-15 03:50:00+00:00,228.0264,14.0,12.97,47.84626,-54.09684
2019-09-15 04:00:00+00:00,222.2964,14.0,12.89,47.84626,-54.09684
2019-09-15 04:10:00+00:00,213.7847,14.03,12.81,47.84626,-54.09684
2019-09-15 04:20:00+00:00,206.6914,14.07,12.89,47.84626,-54.09684
2019-09-15 04:30:00+00:00,200.0281,14.09,12.89,47.84626,-54.09684
2019-09-15 04:40:00+00:00,192.6031,14.09,12.89,47.84626,-54.09684
2019-09-15 04:50:00+00:00,186.2698,14.09,12.97,47.84626,-54.09684
2019-09-15 05:00:00+00:00,180.4431,14.1,12.89,47.84626,-54.09684
2019-09-15 05:10:00+00:00,175.6098,14.1,12.81,47.84626,-54.09684
2019-09-15 05:20:00+00:00,175.3782,14.1,12.89,47.84626,-54.09684
2019-09-15 05:30:00+00:00,178.3782,14.1,12.89,47.84626,-54.09684
2019-09-15 05:40:00+00:00,175.0548,14.1,12.89,47.84626,-54.09684
2019-09-15 05:50:00+00:00,169.8048,14.1,12.89,47.84626,-54.09684
2019-09-15 06:00:00+00:00,171.9664,14.1,12.81,47.84626,-54.09684
2019-09-15 06:10:00+00:00,174.1781,14.1,12.81,47.84626,-54.09684
2019-09-15 06:20:00+00:00,170.8482,14.1,12.89,47.84626,-54.09684
2019-09-15 06:30:00+00:00,171.2648,14.1,12.89,47.84626,-54.09684
2019-09-15 06:40:00+00:00,177.5115,14.1,12.89,47.84626,-54.09684
2019-09-15 06:50:00+00:00,179.7098,14.1,12.89,47.84626,-54.09684
2019-09-15 07:00:00+00:00,181.1664,14.1,12.81,47.84626,-54.09684
2019-09-15 07:10:00+00:00,186.3998,14.1,12.73,47.84626,-54.09684
2019-09-15 07:20:00+00:00,193.1764,14.08,12.89,47.84626,-54.09684
2019-09-15 07:30:00+00:00,198.2931,14.0,12.89,47.84626,-54.09684
2019-09-15 07:40:00+00:00,204.9214,14.0,12.89,47.84626,-54.09684
2019-09-15 07:50:00+00:00,209.2397,14.0,12.89,47.84626,-54.09684
2019-09-15 08:00:00+00:00,212.1064,13.9,12.81,47.84626,-54.09684
2019-09-15 08:10:00+00:00,220.1348,13.9,12.73,47.84626,-54.09684
2019-09-15 08:20:00+00:00,224.0598,13.94,12.81,47.84626,-54.09684
2019-09-15 08:30:00+00:00,227.9264,13.99,12.81,47.84626,-54.09684
2019-09-15 08:40:00+00:00,236.2397,13.99,12.89,47.84626,-54.09684
2019-09-15 08:50:00+00:00,245.9814,14.0,12.89,47.84626,-54.09684
2019-09-15 09:00:00+00:00,250.1581,14.1,12.81,47.84626,-54.09684
2019-09-15 09:10:00+00:00,253.8097,14.1,12.73,47.84626,-54.09684
2019-09-15 09:20:00+00:00,257.3781,14.1,12.81,47.84626,-54.09684
2019-09-15 09:30:00+00:00,261.3181,14.12,12.81,47.84626,-54.09684
2019-09-15 09:40:00+00:00,264.8047,14.14,12.97,47.84626,-54.09684
2019-09-15 09:50:00+00:00,269.068,14.16,12.97,47.84626,-54.09684
2019-09-15 10:00:00+00:00,271.9448,14.17,13.21,47.84626,-54.09684
2019-09-15 10:10:00+00:00,276.328,14.2,13.21,47.84626,-54.09684
2019-09-15 10:20:00+00:00,282.1163,14.2,13.29,47.84626,-54.09684
2019-09-15 10:30:00+00:00,288.1613,14.2,13.29,47.84626,-54.09684
2019-09-15 10:40:00+00:00,293.8464,14.2,13.37,47.84626,-54.09684
2019-09-15 10:50:00+00:00,301.5681,14.2,13.37,47.84626,-54.09684
2019-09-15 11:00:00+00:00,306.8613,14.2,13.37,47.84626,-54.09684
2019-09-15 11:10:00+00:00,310.1995,14.2,13.37,47.84626,-54.09684
2019-09-15 11:20:00+00:00,313.4446,14.2,13.53,47.84626,-54.09684
2019-09-15 11:30:00+00:00,325.7413,14.2,13.68,47.84626,-54.09684
2019-09-15 11:40:00+00:00,333.0646,14.2,13.76,47.84626,-54.09684
2019-09-15 11:50:00+00:00,337.3414,14.2,13.84,47.84626,-54.09684
2019-09-15 12:00:00+00:00,340.5897,14.19,14.08,47.84626,-54.09684
2019-09-15 12:10:00+00:00,343.468,14.19,14.0,47.84626,-54.09684
2019-09-15 12:20:00+00:00,342.9029,14.2,14.32,47.84626,-54.09684
2019-09-15 12:30:00+00:00,346.083,14.19,14.64,47.84626,-54.09684
2019-09-15 12:40:00+00:00,349.6012,14.18,14.56,47.84626,-54.09684
2019-09-15 12:50:00+00:00,344.5513,14.16,14.64,47.84626,-54.09684
2019-09-15 13:00:00+00:00,338.688,14.16,14.56,47.84626,-54.09684
2019-09-15 13:10:00+00:00,341.4979,14.1,14.64,47.84626,-54.09684
2019-09-15 13:20:00+00:00,337.8196,14.1,14.64,47.84626,-54.09684
2019-09-15 13:30:00+00:00,330.8046,14.1,16.39,47.84626,-54.09684
2019-09-15 13:40:00+00:00,323.2496,14.1,14.72,47.84626,-54.09684
2019-09-15 13:50:00+00:00,323.2746,14.03,14.56,47.84626,-54.09684
2019-09-15 14:00:00+00:00,318.9013,14.1,14.48,47.84626,-54.09684
2019-09-15 14:10:00+00:00,311.6547,14.1,14.4,47.84626,-54.09684
2019-09-15 14:20:00+00:00,304.6964,14.1,14.48,47.84626,-54.09684
2019-09-15 14:30:00+00:00,301.1297,14.1,14.48,47.84626,-54.09684
2019-09-15 14:40:00+00:00,297.3447,14.1,14.48,47.84626,-54.09684
2019-09-15 14:50:00+00:00,292.2114,14.1,14.56,47.84626,-54.09684
2019-09-15 15:00:00+00:00,284.6114,14.0,14.48,47.84626,-54.09684
2019-09-15 15:10:00+00:00,281.173,13.95,14.32,47.84626,-54.09684
2019-09-15 15:20:00+00:00,278.0714,13.96,14.4,47.84626,-54.09684
2019-09-15 15:30:00+00:00,271.183,13.99,14.4,47.84626,-54.09684
2019-09-15 15:40:00+00:00,259.4381,14.0,14.32,47.84626,-54.09684
2019-09-15 15:50:00+00:00,252.8514,14.0,14.32,47.84626,-54.09684
2019-09-15 16:00:00+00:00,246.9998,14.0,14.24,47.84626,-54.09684
2019-09-15 16:10:00+00:00,237.6131,14.05,14.08,47.84626,-54.09684
2019-09-15 16:20:00+00:00,226.3231,14.1,14.16,47.84626,-54.09684
2019-09-15 16:30:00+00:00,219.3414,14.1,14.24,47.84626,-54.09684
2019-09-15 16:40:00+00:00,211.7131,14.1,14.24,47.84626,-54.09684
2019-09-15 16:50:00+00:00,203.5048,14.1,14.24,47.84626,-54.09684
2019-09-15 17:00:00+00:00,194.2082,14.1,14.16,47.84626,-54.09684
2019-09-15 17:10:00+00:00,187.8365,14.11,14.0,47.84626,-54.09684
2019-09-15 17:20:00+00:00,185.8981,14.14,14.0,47.84626,-54.09684
2019-09-15 17:30:00+00:00,179.9448,14.15,14.0,47.84626,-54.09684
2019-09-15 17:40:00+00:00,173.1698,14.16,14.0,47.84626,-54.09684
2019-09-15 17:50:00+00:00,172.2282,14.15,14.0,47.84626,-54.09684
2019-09-15 18:00:00+00:00,171.6432,14.13,13.92,47.84626,-54.09684
2019-09-15 18:10:00+00:00,171.4165,14.17,13.76,47.84626,-54.09684
2019-09-15 18:20:00+00:00,173.1082,14.18,13.76,47.84626,-54.09684
2019-09-15 18:30:00+00:00,174.5265,14.18,13.76,47.84626,-54.09684
2019-09-15 18:40:00+00:00,174.3665,14.19,13.84,47.84626,-54.09684
2019-09-15 18:50:00+00:00,176.8081,14.19,13.76,47.84626,-54.09684
2019-09-15 19:00:00+00:00,182.9681,14.19,13.68,47.84626,-54.09684
2019-09-15 19:10:00+00:00,182.0898,14.19,13.53,47.84626,-54.09684
2019-09-15 19:20:00+00:00,180.3931,14.19,13.53,47.84626,-54.09684
2019-09-15 19:30:00+00:00,186.7881,14.19,13.53,47.84626,-54.09684
2019-09-15 19:40:00+00:00,193.4364,14.19,13.44,47.84626,-54.09684
2019-09-15 19:50:00+00:00,197.7082,14.19,13.44,47.84626,-54.09684
2019-09-15 20:00:00+00:00,203.5598,14.19,13.37,47.84626,-54.09684
2019-09-15 20:10:00+00:00,208.5831,14.19,13.21,47.84626,-54.09684
2019-09-15 20:20:00+00:00,215.3264,14.19,13.21,47.84626,-54.09684
2019-09-15 20:30:00+00:00,223.3132,14.19,13.13,47.84626,-54.09684
2019-09-15 20:40:00+00:00,230.8464,14.19,13.13,47.84626,-54.09684
2019-09-15 20:50:00+00:00,234.7864,14.2,13.13,47.84626,-54.09684
2019-09-15 21:00:00+00:00,239.3382,14.2,13.05,47.84626,-54.09684
2019-09-15 21:10:00+00:00,246.1231,14.2,12.89,47.84626,-54.09684
2019-09-15 21:20:00+00:00,253.7597,14.2,12.97,47.84626,-54.09684
2019-09-15 21:30:00+00:00,260.0081,14.2,12.97,47.84626,-54.09684
2019-09-15 21:40:00+00:00,268.3214,14.2,12.97,47.84626,-54.09684
2019-09-15 21:50:00+00:00,277.4097,14.2,13.05,47.84626,-54.09684
2019-09-15 22:00:00+00:00,281.1464,14.2,12.97,47.84626,-54.09684
2019-09-15 22:10:00+00:00,282.0514,14.2,12.89,47.84626,-54.09684
2019-09-15 22:20:00+00:00,289.5414,14.2,12.97,47.84626,-54.09684
2019-09-15 22:30:00+00:00,297.9497,14.2,12.97,47.84626,-54.09684
2019-09-15 22:40:00+00:00,299.3363,14.2,12.97,47.84626,-54.09684
2019-09-15 22:50:00+00:00,302.3597,14.2,12.97,47.84626,-54.09684
2019-09-15 23:00:00+00:00,313.418,14.2,12.89,47.84626,-54.09684
2019-09-15 23:10:00+00:00,320.9397,14.2,12.81,47.84626,-54.09684
2019-09-15 23:20:00+00:00,322.9997,14.2,12.97,47.84626,-54.09684
2019-09-15 23:30:00+00:00,331.3796,14.2,12.97,47.84626,-54.09684
2019-09-15 23:40:00+00:00,340.0463,14.2,12.97,47.84626,-54.09684
2019-09-15 23:50:00+00:00,341.2113,14.2,12.97,47.84626,-54.09684
